Location: Bacharowice
(49.9333°N, 19.5833°E)
Time: 09:21:13
(UTC+00:00)

Cosmos 1908 Rocket - Pass Details

Date: 05 October 2021
Orbit: 605 x 633 km, 82.5° (Epoch: 27 October)

Event Time Altitude Azimuth Distance (km) Brightness Sun altitude
Rises 02:03:42 0° 0° (N) 2,897 7.3 -26.5°
Reaches altitude 10° 02:06:26 10° 18° (NNE) 1,981 6.7 -26.1°
Maximum altitude 02:09:44 20° 66° (ENE) 1,412 6.2 -25.6°
Drops below altitude 10° 02:12:59 10° 115° (ESE) 1,960 6.6 -25.2°
Sets 02:15:40 0° 132° (SE) 2,855 7.3 -24.8°
